Location: Blanot
(47.1713°N, 4.2340°E)
Time: 20:20:01
(UTC+00:00)

Cosmos 1437 Rocket - Pass Details

Date: 14 July 2020
Orbit: 506 x 562 km, 81.2° (Epoch: 14 August)

Event Time Altitude Azimuth Distance (km) Brightness Sun altitude
Rises 02:06:09 0° 339° (NNW) 2,738 6.9 -14.6°
Reaches altitude 10° 02:08:31 10° 329° (NNW) 1,829 5.8 -14.4°
Maximum altitude 02:12:03 30° 268° (W) 991 3.8 -14.0°
Enters shadow 02:13:32 23° 230° (SW) 1,174 3.9 -13.9°
